sat.trackr.live / text

‹ back to catalog

STARLINK-31405

NORAD 59248 · 2024-049T

PAYLOAD ACTIVE UNKNOWN

§ Identity

Operator
Country
US
Launch date
2024-03-16
Launch site
AFETR
Launch vehicle
Mass (kg)
RCS (m²)

Purposes: comms

External: N2YO · Heavens-Above · Gunter

§ Orbital elements

Epoch: 2026-09-20T08:10:43.434336Z

Period
94.27 min
Inclination
43.0034°
Eccentricity
0.0001226
Mean motion
15.27577750 rev/d
Perigee alt
482.2 km
Apogee alt
483.9 km
Semi-major
6,861.2 km
B*
1.9085e-5
RAAN
124.4030°
Arg perigee
267.6075°
Mean anomaly
92.4636°
Rev number
14,216

§ Raw data

STARLINK-314051 59248U 24049T   26263.34078049  .00000263  00000+0  19085-4 0  99982 59248  43.0034 124.4030 0001226 267.6075  92.4636 15.27577750142162

JSON: /api/v1/satellites/59248 · /tle

For live sub-satellite position, see the globe view (requires WebGL).

§ Visibility from observer

Set your observer location to see the next 7 days of passes ≥ 10°. The values pass through the URL so the page stays shareable.

No JS? Fill the form by hand. The geolocation button needs JavaScript.